Date String (YYYY-MM-DD hh:mm:ss) UTC,Instrument flags,absolute air pressure of the measurement (hPa),sample flow rate (lpm),inlet stack bypass flow (lpm),air temperature of the measurement (°C),ambient temperature measured by the external sensor (°C),aerosol sample conditioner tube jacket temperature (°C),OPC LED temperature (°C),internal box temperature (°C),relative humidity of the measurement (%),span deviation,mass concentration of particles derived from Lorenz-Mie calculation of OPC scattering (μg/m³),mass concentration of particles derived from Lorenz-Mie calculation of OPC scattering (μg/m³),mass concentration of particles derived from Lorenz-Mie calculation of OPC scattering (μg/m³)
DateTimeUTC,F1_M11,P_M11,Q1_M11,Q2_M11,T1_M11,T2_M11,T3_M11,T4_M11,T5_M11,U1_M11,ZSPAN_M11,X0_M11,X2_M11,X1_M11
2023-12-29 11:00:00,SystemResetWarning,0835.0,5.00,000.00,018.6,017.3,000.0,027.1,020.0,6.7,0000.0,0000.70,0000.33,0000.25
2023-12-29 11:01:00,SystemResetWarning,0835.0,5.00,000.00,018.6,017.3,000.0,027.1,020.0,6.7,0000.0,0001.56,0000.32,0000.24
2023-12-29 11:02:00,SystemResetWarning,0834.8,5.00,000.00,018.6,017.3,000.0,027.1,020.0,6.6,0000.0,0001.57,0000.33,0000.25
2023-12-29 11:03:00,SystemResetWarning,0834.6,5.00,000.00,018.6,017.3,000.0,027.1,020.0,6.6,0000.0,0001.61,0000.34,0000.24
2023-12-29 11:04:00,SystemResetWarning,0834.7,5.00,000.00,018.6,017.3,000.0,027.1,020.0,6.6,0000.0,0001.59,0000.33,0000.24
2023-12-29 11:05:00,SystemResetWarning,0835.0,5.00,000.00,018.6,017.3,000.0,027.1,020.0,6.6,0000.0,0001.49,0000.32,0000.24
2023-12-29 11:06:00,SystemResetWarning,0835.0,5.00,000.00,018.6,017.3,000.0,027.1,020.0,6.5,0000.0,0001.47,0000.32,0000.24
2023-12-29 11:07:00,SystemResetWarning,0834.8,5.00,000.00,018.6,017.3,000.0,027.1,020.0,6.5,0000.0,0001.38,0000.28,0000.23
2023-12-29 11:08:00,SystemResetWarning,0835.0,5.00,000.00,018.6,017.3,000.0,027.1,020.0,6.5,0000.0,0002.06,0000.28,0000.23
2023-12-29 11:09:00,SystemResetWarning,0834.6,5.00,000.00,018.6,017.3,000.0,027.1,020.0,6.5,0000.0,0002.70,0000.28,0000.23
2023-12-29 11:10:00,SystemResetWarning,0834.7,5.00,000.00,018.6,017.3,000.0,027.1,020.0,6.5,0000.0,0002.72,0000.29,0000.23
2023-12-29 11:11:00,SystemResetWarning,0834.9,5.00,000.00,018.6,017.3,000.0,027.1,020.0,6.5,0000.0,0002.56,0000.29,0000.23
2023-12-29 11:12:00,SystemResetWarning,0834.7,4.99,000.00,018.6,017.3,000.0,027.1,020.0,6.5,0000.0,0001.77,0000.29,0000.24
2023-12-29 11:13:00,SystemResetWarning,0834.6,4.99,000.00,018.6,017.3,000.0,027.1,020.0,6.9,0000.0,0001.78,0000.30,0000.23
2023-12-29 11:14:00,SystemResetWarning,0834.7,5.01,000.00,018.6,017.4,000.0,027.1,020.0,7.1,0000.0,0001.78,0000.29,0000.24
2023-12-29 11:15:00,SystemResetWarning,0834.5,5.01,000.00,018.6,017.4,000.0,027.1,020.0,7.0,0000.0,0001.80,0000.30,0000.24
2023-12-29 11:16:00,SystemResetWarning,0834.7,5.01,000.00,018.6,017.4,000.0,027.1,020.0,6.9,0000.0,0001.81,0000.31,0000.25
2023-12-29 11:17:00,SystemResetWarning,0834.8,5.00,000.00,018.6,017.4,000.0,027.1,020.0,7.0,0000.0,0001.83,0000.32,0000.25
2023-12-29 11:18:00,SystemResetWarning,0834.7,4.99,000.00,018.6,017.4,000.0,027.1,020.0,6.9,0000.0,0001.83,0000.32,0000.25
2023-12-29 11:19:00,SystemResetWarning,0834.7,5.00,000.00,018.6,017.4,000.0,027.1,020.0,6.7,0000.0,0001.26,0000.32,0000.25
2023-12-29 11:20:00,SystemResetWarning,0834.9,5.00,000.00,018.6,017.4,000.0,027.1,020.0,6.6,0000.0,0000.53,0000.34,0000.26
2023-12-29 11:21:00,SystemResetWarning,0834.7,5.00,000.00,018.6,017.4,000.0,027.1,020.0,6.5,0000.0,0000.49,0000.32,0000.25
2023-12-29 11:22:00,SystemResetWarning,0834.6,5.00,000.00,018.6,017.4,000.0,027.1,020.0,6.7,0000.0,0000.44,0000.30,0000.25
2023-12-29 11:23:00,SystemResetWarning,0834.9,5.00,000.00,018.6,017.3,000.0,027.1,020.0,6.9,0000.0,0000.44,0000.30,0000.25
2023-12-29 11:24:00,SystemResetWarning,0834.6,5.00,000.00,018.6,017.3,000.0,027.1,020.0,6.8,0000.0,0000.42,0000.30,0000.25
2023-12-29 11:25:00,SystemResetWarning,0834.7,5.00,000.00,018.6,017.3,000.0,027.1,020.0,6.6,0000.0,0000.38,0000.28,0000.25
2023-12-29 11:26:00,SystemResetWarning,0834.8,5.00,000.00,018.6,017.3,000.0,027.1,020.0,6.3,0000.0,0000.37,0000.28,0000.24
2023-12-29 11:27:00,SystemResetWarning,0834.6,5.00,000.00,018.6,017.3,000.0,027.1,020.0,6.3,0000.0,0000.36,0000.27,0000.24
2023-12-29 11:28:00,SystemResetWarning,0834.6,5.00,000.00,018.6,017.3,000.0,027.1,020.0,6.2,0000.0,0000.33,0000.26,0000.24
2023-12-29 11:29:00,SystemResetWarning,0834.8,5.00,000.00,018.5,017.3,000.0,027.1,020.0,6.2,0000.0,0000.35,0000.26,0000.24
2023-12-29 11:30:00,SystemResetWarning,0834.6,5.00,000.00,018.6,017.4,000.0,027.1,020.2,6.4,0000.0,0000.37,0000.27,0000.25
2023-12-29 11:31:00,SystemResetWarning,0834.8,5.01,000.00,018.7,018.1,000.0,027.0,020.5,6.5,0000.0,0000.34,0000.26,0000.25
2023-12-29 11:32:00,SystemResetWarning,0834.7,5.00,000.00,018.8,018.4,000.0,027.0,020.5,6.4,0000.0,0000.34,0000.27,0000.25
2023-12-29 11:33:00,SystemResetWarning,0834.6,4.99,000.00,018.8,018.4,000.0,027.0,020.3,6.4,0000.0,0000.35,0000.28,0000.26
2023-12-29 11:34:00,SystemResetWarning,0834.6,5.00,000.00,018.8,018.3,000.0,027.0,020.2,6.5,0000.0,0000.36,0000.28,0000.26
2023-12-29 11:35:00,SystemResetWarning,0834.6,5.01,000.00,018.8,018.2,000.0,027.0,020.1,6.5,0000.0,0000.35,0000.27,0000.26
2023-12-29 11:36:00,SystemResetWarning,0834.7,5.01,000.00,018.7,018.1,000.0,027.0,020.0,6.5,0000.0,0000.35,0000.27,0000.26
2023-12-29 11:37:00,SystemResetWarning,0834.7,5.00,000.00,018.7,017.9,000.0,027.0,020.0,6.5,0000.0,0000.35,0000.28,0000.26
2023-12-29 11:38:00,SystemResetWarning,0834.8,5.00,000.00,018.7,017.8,000.0,027.0,020.0,6.6,0000.0,0000.35,0000.28,0000.26
2023-12-29 11:39:00,SystemResetWarning,0835.0,5.00,000.00,018.7,017.7,000.0,027.0,020.0,6.5,0000.0,0000.39,0000.31,0000.27
2023-12-29 11:40:00,SystemResetWarning,0834.9,5.01,000.00,018.7,017.7,000.0,027.1,020.0,6.5,0000.0,0000.41,0000.32,0000.28
2023-12-29 11:41:00,SystemResetWarning,0835.0,5.00,000.00,018.7,017.6,000.0,027.1,020.0,6.5,0000.0,0000.39,0000.32,0000.28
2023-12-29 11:42:00,SystemResetWarning,0835.0,5.01,000.00,018.7,017.5,000.0,027.1,020.0,6.5,0000.0,0000.41,0000.33,0000.28
2023-12-29 11:43:00,SystemResetWarning,0835.1,5.00,000.00,018.7,017.5,000.0,027.1,020.0,6.5,0000.0,0000.41,0000.33,0000.28
2023-12-29 11:44:00,SystemResetWarning,0835.1,5.00,000.00,018.7,017.5,000.0,027.1,020.0,6.5,0000.0,0000.41,0000.33,0000.27
2023-12-29 11:45:00,SystemResetWarning,0835.1,4.99,000.00,018.6,017.4,000.0,027.1,020.0,6.5,0000.0,0000.43,0000.34,0000.29
2023-12-29 11:46:00,SystemResetWarning,0835.1,5.00,000.00,018.6,017.4,000.0,027.1,020.0,6.4,0000.0,0000.46,0000.36,0000.30
2023-12-29 11:47:00,SystemResetWarning,0835.1,5.00,000.00,018.6,017.4,000.0,027.1,020.0,6.6,0000.0,0000.47,0000.37,0000.31
2023-12-29 11:48:00,SystemResetWarning,0835.0,5.00,000.00,018.6,017.4,000.0,027.1,020.0,6.7,0000.0,0000.49,0000.38,0000.32
2023-12-29 11:49:00,SystemResetWarning,0835.1,5.00,000.00,018.6,017.3,000.0,027.1,020.0,6.5,0000.0,0000.57,0000.41,0000.33
2023-12-29 11:50:00,SystemResetWarning,0834.9,5.01,000.00,018.6,017.3,000.0,027.1,020.0,6.5,0000.0,0000.55,0000.39,0000.33
2023-12-29 11:51:00,SystemResetWarning,0835.1,5.01,000.00,018.6,017.3,000.0,027.1,020.0,6.4,0000.0,0000.58,0000.39,0000.33
2023-12-29 11:52:00,SystemResetWarning,0834.9,5.00,000.00,018.6,017.3,000.0,027.1,020.0,6.5,0000.0,0000.60,0000.40,0000.32
2023-12-29 11:53:00,SystemResetWarning,0834.9,4.99,000.00,018.6,017.3,000.0,027.1,020.0,6.5,0000.0,0000.58,0000.40,0000.33
2023-12-29 11:54:00,SystemResetWarning,0834.8,5.00,000.00,018.6,017.3,000.0,027.1,020.0,6.6,0000.0,0000.59,0000.41,0000.34
2023-12-29 11:55:00,SystemResetWarning,0834.7,5.00,000.00,018.6,017.3,000.0,027.1,020.0,6.7,0000.0,0000.58,0000.41,0000.34
2023-12-29 11:56:00,SystemResetWarning,0834.9,4.99,000.00,018.6,017.3,000.0,027.1,020.0,6.7,0000.0,0000.56,0000.39,0000.33
2023-12-29 11:57:00,SystemResetWarning,0834.7,5.00,000.00,018.6,017.3,000.0,027.1,020.0,6.6,0000.0,0000.55,0000.38,0000.32
2023-12-29 11:58:00,SystemResetWarning,0834.7,5.01,000.00,018.6,017.3,000.0,027.1,020.0,6.5,0000.0,0000.59,0000.39,0000.32
2023-12-29 11:59:00,SystemResetWarning,0834.7,5.00,000.00,018.6,017.2,000.0,027.1,020.0,6.6,0000.0,0000.75,0000.42,0000.32
